Location: Peterborough
(44.3091°N, 78.3197°W)
Time: 22:21:51
(UTC-04:00)

Vanguard 1 - Pass Details

Date: 15 April 2024
Orbit: 652 x 3825 km, 34.2° (Epoch: 29 May)

Event Time Altitude Azimuth Distance (km) Brightness Sun altitude
Rises 08:28:39 0° 250° (WSW) 7,137 13.9 20.5°
Reaches altitude 10° 08:34:15 10° 246° (WSW) 5,664 13.5 21.5°
Maximum altitude 08:48:31 48° 179° (S) 2,258 12.3 24.0°
Drops below altitude 10° 08:56:25 10° 107° (ESE) 3,223 14.6 25.4°
Sets 08:58:43 0° 101° (ESE) 3,918 14.5 25.8°
